Location: Krakow
(50.0212°N, 19.9423°E)
Time: 02:53:27
(UTC+02:00)

NOAA 15 - Pass Details

Date: 14 September 2024
Orbit: 795 x 810 km, 98.6° (Epoch: 10 October)

Event Time Altitude Azimuth Distance (km) Brightness Sun altitude
Rises 19:34:38 0° 175° (S) 3,290 7.6 -7.1°
Reaches altitude 10° 19:36:59 10° 179° (S) 2,363 6.9 -7.4°
Maximum altitude 19:42:08 59° 259° (WSW) 919 5.3 -8.3°
Drops below altitude 10° 19:47:20 10° 339° (NNW) 2,377 7.6 -9.1°
Sets 19:49:42 0° 343° (NNW) 3,312 8.3 -9.4°
